Powrót do katalogu

COSMOS 1275 DEB

AktywnyPO
NORAD 42143·DEBRIS·🇷🇺 Russia

Wystrzelony Jun 4, 1981 z Plesetsk Cosmodrome

Loading…

Następne Przeloty (najbliższe 24 godziny)

TLE

Starzejące sięSource: Space-Track

Epoka: Sep 9, 2026, 09:01 UTC

1 42143U 81053RF  26252.37631221  .00000963  00000-0  86175-3 0  9991
2 42143  83.0149 126.6283 0093941 137.8069 223.0371 13.81359996642519

Śledź COSMOS 1275 DEB w czasie rzeczywistym z AllMySat

Download on the App Store